FW5468 Weather Reports


time (UTC)temp
F
wind
direction
speed
knots
gust
knots
rain 1hr
in
rain 24hr
in
rain mn
in
humidity
%
barometer
mb
20260504204524 82 206 6.1 13.0 0.00 0.00 0.00 42 1008.4
20260504203108 82 188 3.5 12.2 0.00 0.00 0.00 44 1008.4
20260504201517 80 172 7.0 19.1 0.00 0.00 0.00 43 1008.7
20260504200125 81 129 7.0 15.6 0.00 0.00 0.00 43 1009.0
20260504194553 80 193 4.3 13.0 0.00 0.00 0.00 43 1009.2
20260504193027 80 164 3.5 20.0 0.00 0.00 0.00 45 1009.4
20260504191627 80 227 6.1 14.8 0.00 0.00 0.00 43 1009.8
20260504190054 80 18 2.6 12.2 0.00 0.00 0.00 49 1010.0
20260504184541 80 191 2.6 15.6 0.00 0.00 0.00 47 1010.0
20260504183112 79 193 5.2 17.4 0.00 0.00 0.00 46 1010.1
20260504181521 79 179 4.3 15.6 0.00 0.00 0.00 47 1010.2
20260504180000 80 187 5.2 13.9 0.00 0.00 0.00 44 1010.3
20260504174545 79 287 4.3 13.0 0.00 0.00 0.00 49 1010.6
20260504173011 79 226 2.6 12.2 0.00 0.00 0.00 46 1010.9
20260504171559 78 275 1.7 13.0 0.00 0.00 0.00 51 1011.0
20260504150103 72 270 3.5 10.4 0.00 0.00 0.00 60 1012.2
20260504081528 61 222 1.7 6.1 0.00 0.00 0.00 64 1012.1
20260504080136 61 210 1.7 7.0 0.00 0.00 0.00 63 1012.2
20260504044623 60 189 0.0 3.5 0.00 0.00 0.00 62 1013.6
20260504043048 60 233 0.0 2.6 0.00 0.00 0.00 62 1013.6
20260504041635 60 175 0.0 3.5 0.00 0.00 0.00 62 1013.7
20260504040132 60 197 0.0 1.7 0.00 0.00 0.00 61 1013.8
20260504034537 61 179 0.0 0.0 0.00 0.00 0.00 59 1014.0
20260504033001 61 203 0.9 3.5 0.00 0.00 0.00 58 1014.0
20260504031559 62 183 0.0 2.6 0.00 0.00 0.00 58 1014.1
20260504030009 62 198 0.0 3.5 0.00 0.00 0.00 56 1014.1
20260504024555 63 193 0.9 2.6 0.00 0.00 0.00 56 1014.2
20260504023010 63 168 0.9 3.5 0.00 0.00 0.00 54 1014.1
20260504021554 64 201 0.9 5.2 0.00 0.00 0.00 53 1013.9
20260504020038 64 213 0.9 5.2 0.00 0.00 0.00 53 1013.7
20260504014604 64 183 0.9 3.5 0.00 0.00 0.00 53 1013.8
20260504013048 64 168 0.0 2.6 0.00 0.00 0.00 52 1013.8
20260504011505 65 199 0.0 1.7 0.00 0.00 0.00 51 1013.8
20260504010125 66 182 0.0 0.9 0.00 0.00 0.00 49 1013.9
20260504004546 67 187 0.0 2.6 0.00 0.00 0.00 47 1013.9
20260504003007 68 184 0.0 0.9 0.00 0.00 0.00 45 1014.0
20260504001556 69 210 0.9 3.5 0.00 0.00 0.00 42 1014.1
20260504000039 70 211 1.7 7.0 0.00 0.00 0.00 39 1014.1
20260503234629 70 174 2.6 7.8 0.00 0.00 0.00 39 1014.2
20260503233049 71 27 1.7 6.1 0.00 0.00 0.00 38 1014.3
20260503231616 72 312 2.6 7.0 0.00 0.00 0.00 38 1014.4
20260503230056 73 211 2.6 9.6 0.00 0.00 0.00 37 1014.5
20260503224541 73 259 2.6 7.0 0.00 0.00 0.00 38 1014.8
20260503223003 73 203 3.5 7.0 0.00 0.00 0.00 37 1014.5
20260503221559 74 221 1.7 9.6 0.00 0.00 0.00 38 1014.8
20260503220034 74 265 2.6 7.0 0.00 0.00 0.00 40 1015.2
20260503214603 73 282 2.6 7.8 0.00 0.00 0.00 38 1015.3
20260503213020 73 186 3.5 8.7 0.00 0.00 0.00 39 1015.7
20260503211608 73 192 0.9 5.2 0.00 0.00 0.00 39 1015.9
20260503210055 72 339 1.7 8.7 0.00 0.00 0.00 42 1016.3